FW5123 Weather Reports


time (UTC)temp
C
wind
direction
speed
KPH
gust
KPH
rain 1hr
cm
rain 24hr
cm
rain mn
cm
humidity
%
barometer
mb
20260504041516 7 250 3.2 12.9 0.00 0.00 0.00 57 1013.9
20260504040018 7 262 1.6 9.7 0.00 0.00 0.00 56 1013.9
20260504034512 7 268 3.2 12.9 0.00 0.00 0.00 56 1013.9
20260504033111 7 241 3.2 12.9 0.00 0.00 0.00 55 1014.1
20260504031511 7 258 3.2 11.3 0.00 0.00 0.00 55 1014.2
20260504030008 7 262 3.2 11.3 0.00 0.00 0.00 54 1014.3
20260504024506 8 268 4.8 11.3 0.00 0.00 0.00 54 1014.3
20260504023105 7 264 3.2 8.0 0.00 0.00 0.00 54 1014.3
20260504021504 8 289 1.6 8.0 0.00 0.00 0.00 53 1014.4
20260504020003 8 278 1.6 6.4 0.00 0.00 0.00 53 1014.3
20260504014504 8 310 1.6 11.3 0.00 0.00 0.00 52 1014.2
20260504013002 8 276 3.2 9.7 0.00 0.00 0.00 51 1014.1
20260504011503 8 247 4.8 11.3 0.00 0.00 0.00 51 1014.0
20260504010002 8 278 3.2 9.7 0.00 0.00 0.00 50 1014.2
20260504004505 8 261 1.6 6.4 0.00 0.00 0.00 49 1014.2
20260504003101 9 234 1.6 8.0 0.00 0.00 0.00 48 1014.1
20260504001602 9 266 3.2 11.3 0.00 0.00 0.00 48 1014.0
20260504000101 10 305 3.2 12.9 0.00 0.00 0.00 48 1014.0
20260503234557 10 272 4.8 14.5 0.00 0.00 0.00 47 1014.1
20260503233057 10 258 6.4 14.5 0.00 0.00 0.00 46 1013.9
20260503231604 10 290 3.2 9.7 0.00 0.00 0.00 46 1013.7
20260503230110 10 278 4.8 16.1 0.00 0.00 0.00 45 1013.9
20260503224603 10 296 11.3 25.7 0.00 0.00 0.00 44 1013.9
20260503223055 11 263 8.0 14.5 0.00 0.00 0.00 43 1013.9
20260503221601 10 302 4.8 14.5 0.00 0.00 0.00 46 1013.9
20260503220055 10 277 6.4 14.5 0.00 0.00 0.00 44 1013.9
20260503214554 10 295 6.4 17.7 0.00 0.00 0.00 45 1013.8
20260503213100 10 328 8.0 16.1 0.00 0.00 0.00 45 1013.5
20260503211605 10 292 6.4 17.7 0.00 0.00 0.00 45 1013.7
20260503210046 10 343 9.7 20.9 0.00 0.00 0.00 45 1013.7
20260503204546 10 274 8.0 17.7 0.00 0.00 0.00 44 1013.8
20260503203048 10 311 4.8 12.9 0.00 0.00 0.00 45 1013.9
20260503201542 10 320 11.3 20.9 0.00 0.00 0.00 44 1013.7
20260503200053 10 310 4.8 14.5 0.00 0.00 0.00 45 1014.1
20260503194539 10 309 6.4 17.7 0.00 0.00 0.00 45 1014.3
20260503193040 10 324 9.7 22.5 0.00 0.00 0.00 45 1014.6
20260503191544 9 323 4.8 16.1 0.00 0.00 0.00 49 1014.8
20260503190039 8 315 11.3 20.9 0.00 0.00 0.00 49 1015.0
20260503184543 8 314 8.0 19.3 0.00 0.00 0.00 48 1014.8
20260503183040 8 293 6.4 17.7 0.00 0.00 0.00 49 1014.9
20260503181528 9 296 9.7 17.7 0.00 0.00 0.00 47 1015.0
20260503180043 8 322 11.3 20.9 0.00 0.00 0.00 47 1015.2
20260503174541 8 305 9.7 20.9 0.00 0.00 0.00 47 1015.4
20260503173035 9 320 8.0 16.1 0.00 0.00 0.00 47 1015.3
20260503171528 8 289 11.3 22.5 0.00 0.00 0.00 46 1015.3
20260503081541 0 304 4.8 8.0 0.00 0.00 0.00 84 1015.6
20260503071528 0 308 3.2 12.9 0.00 0.00 0.00 83 1015.6
20260503054521 0 319 4.8 12.9 0.00 0.00 0.00 81 1016.0
20260503053020 0 318 4.8 8.0 0.00 0.00 0.00 81 1016.1
20260503051531 0 318 4.8 8.0 0.00 0.00 0.00 80 1016.2
20260503050014 0 335 3.2 8.0 0.00 0.00 0.00 79 1016.4
20260503044514 0 316 1.6 6.4 0.00 0.00 0.00 78 1016.5
20260503043014 0 315 3.2 6.4 0.00 0.00 0.00 78 1016.6